Regional Weather Roundup
Issued by NWS Albany, NY

Home | Current Version | Previous Version | Text Only | Print | Product List | Glossary On
Versions: 1 2 3 4 5 6 7 8 9 10 11 12 13 14 15 16 17 18 19 20 21 22 23 24 25 26 27 28 29 30 31 32 33 34 35 36 37 38 39 40 41 42 43 44 45 46 47 48 49 50
061
ASUS41 KALY 261410
RWRALY

NEW YORK STATE HOURLY WEATHER ROUNDUP
NATIONAL WEATHER SERVICE ALBANY NY
1000 AM EDT FRI MAY 26 2017

NOTE: "FAIR" INDICATES FEW OR NO CLOUDS BELOW 12,000 FEET WITH NO
SIGNIFICANT WEATHER AND/OR NO OBSTRUCTIONS TO VISIBILITY.

NYZ032-033-038>043-046>054-057>066-NYZ062>081-082-084-261500-
EAST


CITY           SKY/WX    TMP DP  RH WIND       PRES   REMARKS
ALBANY         LGT RAIN  57  53  86 NW8       29.57S
GLENS FALLS    LGT RAIN  55  52  88 N3        29.56R
POUGHKEEPSIE   CLOUDY    57  52  83 CALM      29.56F
NEWBURGH       CLOUDY    55  55 100 W7        29.60S FOG
MONTGOMERY     CLOUDY    59  55  87 MISG      29.57F
WHITE PLAINS   PTSUNNY   60  55  83 W10       29.57S
ISLIP          PTSUNNY   61  55  81 W9        29.57S
NEW YORK CITY  CLOUDY    63  55  75 W9        29.58S
CENTRAL PARK   CLOUDY    60  57  89 W7        29.62R
$$

NYZ005>009-017-018-044>046-055-056-261500-
CENTRAL


CITY           SKY/WX    TMP DP  RH WIND       PRES   REMARKS
FULTON         CLOUDY    58  56  93 NW6       29.62S
SYRACUSE       CLOUDY    58  57  97 W9        29.61R
ROME           CLOUDY    57  54  89 W8        29.60F
ELMIRA         CLOUDY    62  52  69 W7        29.65R
BINGHAMTON     LGT RAIN  55  53  93 NW10      29.63R
MONTICELLO     CLOUDY    57  57 100 NW10G17   29.61S
$$

NYZ026>034-041>043-087-261500-
NORTH


CITY           SKY/WX    TMP DP  RH WIND       PRES   REMARKS
WATERTOWN      CLOUDY    59  56  89 W7        29.61S
FORT DRUM      NOT AVBL
OGDENSBURG     LGT RAIN  55  54  95 N7        29.62R
MASSENA        CLOUDY    56  52  86 N8        29.63R
SARANAC LAKE   CLOUDY    51  51 100 VRB3      29.57S FOG
PLATTSBURGH    LGT RAIN  55  52  89 N10       29.56S
$$

NYZ001>004-010>016-019>021-085-261500-
WEST


CITY           SKY/WX    TMP DP  RH WIND       PRES   REMARKS
NIAGARA FALLS  LGT RAIN  58  54  86 W8        29.69R FOG
BUFFALO        LGT RAIN  55  53  93 W7        29.69R FOG
DUNKIRK        CLOUDY    54  54 100 W8        29.73R FOG
JAMESTOWN      CLOUDY    54  50  87 W10G17    29.73R
WELLSVILLE     CLOUDY    57  53  86 NW12      29.71R
ROCHESTER      DRIZZLE   57  55  93 W10       29.67R FOG
PENN YAN       CLOUDY    63  52  67 W10       29.65S
$$

             KEY
       WCI = WIND CHILL INDEX
       VSB = VISIBILITY
       HX  = HEAT INDEX
$$




USA.gov is the U.S. government's official web portal to all federal, state and local government web resources and services.